Погода в Курске

Хотите узнать прогноз погоды в Курске? Тогда Вам сюда: Погода в Курске

Поиск расширенной информации на нашем сайте:

Полезная информация:

Новости сайта



02.01.2020
Опубликован Долгосрочный прогноз погоды по городам России и ближнего зарубежья на январь 2020 года.
Карты: Прогноз на январь и февраль 2020 года, Сравнение прогнозируемой аномалии приземной температуры воздуха на январь 2020 года по разным моделям.




Погода в Курске - сегодня

Время (UTC), дата Ветер
(°,м/с) 
Видим.   Явления Облачность Т
(°С)
Тd
(°С)
f(%) Тe
(°С)
Pmin
(гПа)
dP
(гПа)
Po
(мм)
O2
(г/м3)
Тmin Tmax R s Состояние
почвы
15 16.04.21 150 (ЮВ) 10 км    8/3 600 м средняя 
[Sc|Ac As]
+11.8 +2.8 54 +12  1015.5  -0.3  740  285           
18 16.04.21 160 (Ю) 10 км    8/8 600 м 
[Sc]
+9.4 +3.7 68 +9  1016.7  0.9  740  288    +12.6       
21 16.04.21 200 (Ю) 10 км    3/0 средняя 
[Ac trans]
+7.2 +4.3 82 +7  1017.6  0.7  741  290           
00 17.04.21 110 (В) 10 км    10/10 600 м 
[Sc]
+6.7 +4 83 +8  1017.8  -0.1  741  291           
03 17.04.21 100 (В) 4000 м  слаб. ливневой дождь  10/10 600 м кучево-дожд. 
[Cb cap]
+5.6 +4.7 94 +6  1018.3  0.3  741  292  +5.4       
06 17.04.21 060 (СВ) 4000 м  в посл. час ливневой дождь  10/10 600 м 
[Sc diur, vesp]
+5.8 +5 95 +7  1018.6  0.4  741  292  +5.4      влажная 
09 17.04.21 180 (Ю) 10 км    9/6 600 м верхняя 
[Sc|Ci fib]
+9.5 +4 68 +11  1018.2  741  288           
12 17.04.21 260 (З) 10 км  слаб. ливневой дождь  10/10 600 м кучево-дожд. 
[Cb cap]
+7.8 +3.7 75 +8  1017.9  -0.5  741  290           
15 17.04.21 030 (СВ) 10 км  {ливн. осадки}  9/3 600 м средняя, верхняя 
[Sc|Ac trans|Ci fib]
+9.1 +3.9 70 +9  1017.4  -0.3  741  288         
18 17.04.21 060 (СВ) 10 км  {ливн. осадки}  9/3 600 м средняя, верхняя 
[Sc|Ac trans|Ci fib]
+6.9 +3.9 81 +7  1017.9  0.2  741  291    +11.4     
21 17.04.21 330 (СЗ) 10 км  {ливн. осадки}  9/6 600 м средняя, верхняя 
[Sc|Ac trans|Ci fib]
+6 +3.3 83 +7  1017.7  -0.3  741  291           
00 18.04.21 140 (ЮВ) 10 км  {ливн. осадки}  6/0 верхняя 
[Ci fib]
+4.6 +3.1 90 +5  1017.4  -0.4  740  293           
03 18.04.21 тихо ()   4000 м  дымка{ливн. осадки}  9/8 600 м верхняя 
[Sc|Ci fib]
+4.2 +3.4 95 +4  1017.6  0.1  740  293  +3.8    0.7     
06 18.04.21 060 (СВ) 10 км  {ливн. осадки}  9/8 600 м средняя 
[Sc|Ac trans]
+7.4 +4.4 81 +7  1017.6  0.4  741  290  +3.8    0.7    влажная 
09 18.04.21 080 (В) 10 км    8/8 600 м верхняя 
[Sc|Ci fib]
+10 +2.8 61 +11  1017.1  -0.3  740  287           
12 18.04.21 180 (Ю) 10 км  {ливн. осадки}  10/10 600 м кучево-дожд. 
[Cb calv]
+8.3 +2.5 67 +7  1017.5  0.3  741  289           
15 18.04.21 290 (З) 10 км    9/4 600 м средняя, верхняя 
[Sc|Ac trans|Ci fib]
+9.2 +2.6 63 +9  1017.2  -0.2  741  288      0.0     
18 18.04.21 030 (СВ) 10 км    10/10 600 м 
[Sc]
+6.6 +4.9 89 +6  1018.3  0.8  741  291    +11.3  0.0     
21 18.04.21 060 (СВ) 10 км  {ливн. осадки}  9/9 600 м 
[Sc]
+5.3 +4.2 93 +6  1017.8  -0.6  741  292           
00 19.04.21 060 (СВ) 4000 м  дымка{ливн. осадки}  10/10 300 м 
[St]
+5.1 +4.4 95 +6  1017.6  -0.3  740  292           
03 19.04.21 030 (СВ) 2000 м  слаб. ливневой дождь  10/10 300 м кучево-дожд. 
[Cb cap]
+5.4 +4.6 95 +6  1016.6  -0.9  740  292  +5.1    0.8     
06 19.04.21 020 (С) 4000 м  слаб. ливневой дождь  10/10 600 м кучево-дожд. 
[Cb cap]
+5.6 +4.8 95 +6  1016.8  0.2  740  291  +5.1      влажная 
09 19.04.21 110 (В) 10 км  {ливн. осадки}  9/8 600 м средняя 
[Sc diur, vesp|Ac trans]
+7.7 +4.8 82 +8  1016.7  0.1  740  289           
12 19.04.21 020 (С) 10 км  в посл. час ливневой дождь  9/6 600 м кучево-дожд., средняя 
[Cb calv|Ac trans]
+7.7 +6.2 90 +7  1016.4  -0.3  740  289           
15 19.04.21 040 (СВ) 10 км    8/8 600 м 
[Sc]
+9.6 +4.8 72 +11  1015.7  -0.5  740  287         
Время (UTC), дата Ветер
(°,м/с) 
Видим.   Явления Облачность Т
(°С)
Тd
(°С)
f(%) Тe
(°С)
Pmin
(гПа)
dP
(гПа)
Po
(мм)
O2
(г/м3)
Тmin Tmax R s Состояние
почвы

Для получения пояснительной информации подведите курсор к названию столбца.

ПОГОДА в Курске - архив

Всё, что Вы хотите узнать о погоде в Курске - удобно и подробно!

Выберите нужную дату (начиная с 1 января 2019* года) и нажмите кнопку "Найти".
Будут отображены архивные сводки погоды по пункту Курск, начиная с указанной даты.


Отображать данные в формате CSV (для использования в таблицах Excel)


Внимание! Наш архив погоды предназначен исключительно для личного некоммерческого использования в познавательных целях. Если Вам необходимы официальные справки о состоянии погоды (для производственных, юридических, коммерческих и т.п. целей), обращайтесь в органы Росгидромета.

*Примечание: данная дата относится к архиву по метеостанциям СССР (Россия, СНГ, Балтия).
Архив по метеостанциям Зарубежной Европы и Азии (кроме Китая) хранится 10 дней, по другим регионам земного шара (Китай, Африка, Америка, Австралия, Океания) - 1 день.

Курск - район местоположения метеостанции


Название, широта, долгота, высота метеостанции:
Курск 51.8°ш. 36.2°д. 247 м над ур. моря [Российская Федерация]

Дополнительная информация

В oтличие oт бoльшинства пoгoдных сайтoв мы публикуем пoдрoбную метеoинфoрмацию в детальнoм прoфессиoнальнoм фoрмате.

Характеристики температуры и влажнoсти вoздуха измеряются на высoте 2 м в тени вдали oт зданий и деревьев.
Скoрoсть ветра измеряется на высoте 10 м (на урoвне рoста челoвека скoрoсть ветра ниже в 1.5-2 раза). Если метеoстанция нахoдится в гoрoде или в лесу, тo скoрoсть ветра занижена на 2-4 м/с пo сравнению с oткрытым местoм. Скoрoсть ветра над акватoриями крупных рек и oзёр, а также на вершинах хoлмoв на 2-5 м/с выше, чем в oбычных услoвиях.
Атмoсфернoе давление в разных тoчках местнoсти мoжет значительнo oтличаться oт давления на метеoстанции, в зависимoсти oт услoвий рельефа (при пoдъёме на 10 м давление пoнижается примернo на 1 мм рт.ст.).